Back to catalog

STARLINK-1202

AliveCommunicationsVLEO
NORAD 45183·PAYLOAD·🇺🇸 United States

Launched Feb 17, 2020 from Cape Canaveral Space Force Station

Loading…

Next Passes (next 24 hours)

TLE

FreshSource: CelesTrak SupGP

Epoch: Sep 14, 2026, 21:10 UTC

1 45183C 20012F   26257.88243056  .00049857  00000+0  11176-2 0  2571
2 45183  53.1516 233.4775 0002315  88.6708  52.7817 15.42812010    18

Track STARLINK-1202 in real time with AllMySat

Download on the App Store